Time,TemperatureF,DewpointF,PressureIn,WindDirection,WindDirectionDegrees,WindSpeedMPH,WindSpeedGustMPH,Humidity,HourlyPrecipIn,Conditions,Clouds,dailyrainin,SoftwareType,DateUTC
2013-02-18 00:00:00,50.6,33.1,29.65,NNW,348,5.0,7.0,51,0.00,,,0.00,Wunderground v.1.15,2013-02-18 06:00:00,
2013-02-18 00:10:00,50.3,33.3,29.65,NE,40,4.0,5.0,52,0.00,,,0.00,Wunderground v.1.15,2013-02-18 06:10:00,
2013-02-18 00:15:00,50.1,33.1,29.65,NW,309,4.0,5.0,52,0.00,,,0.00,Wunderground v.1.15,2013-02-18 06:15:00,
2013-02-18 00:20:00,49.9,33.0,29.65,NNW,333,4.0,8.0,52,0.00,,,0.00,Wunderground v.1.15,2013-02-18 06:20:00,
2013-02-18 00:25:00,49.7,33.2,29.64,NW,321,4.0,8.0,53,0.00,,,0.00,Wunderground v.1.15,2013-02-18 06:25:00,
2013-02-18 00:30:00,49.5,33.5,29.64,NW,323,4.0,4.0,54,0.00,,,0.00,Wunderground v.1.15,2013-02-18 06:30:00,
2013-02-18 00:40:00,49.1,33.2,29.64,NW,323,4.0,6.0,54,0.00,,,0.00,Wunderground v.1.15,2013-02-18 06:40:00,
2013-02-18 00:45:00,49.2,33.3,29.64,NE,40,4.0,9.0,54,0.00,,,0.00,Wunderground v.1.15,2013-02-18 06:45:00,
2013-02-18 00:50:00,49.2,33.3,29.64,NNW,338,5.0,5.0,54,0.00,,,0.00,Wunderground v.1.15,2013-02-18 06:50:00,
2013-02-18 00:55:00,49.1,33.6,29.64,NNE,12,4.0,7.0,55,0.00,,,0.00,Wunderground v.1.15,2013-02-18 06:55:00,
2013-02-18 01:00:00,49.0,33.5,29.63,NW,326,4.0,5.0,55,0.00,,,0.00,Wunderground v.1.15,2013-02-18 07:00:00,
2013-02-18 01:10:00,48.6,33.1,29.63,NNW,336,5.0,12.0,55,0.00,,,0.00,Wunderground v.1.15,2013-02-18 07:10:00,
2013-02-18 01:15:00,48.5,33.5,29.63,NNW,330,5.0,12.0,56,0.00,,,0.00,Wunderground v.1.15,2013-02-18 07:15:00,
2013-02-18 01:20:00,48.5,33.5,29.63,NW,316,5.0,5.0,56,0.00,,,0.00,Wunderground v.1.15,2013-02-18 07:20:00,
2013-02-18 01:30:00,48.0,33.5,29.62,North,354,5.0,7.0,57,0.00,,,0.00,Wunderground v.1.15,2013-02-18 07:30:00,
2013-02-18 01:35:00,47.7,33.2,29.62,NNW,330,5.0,7.0,57,0.00,,,0.00,Wunderground v.1.15,2013-02-18 07:35:00,
2013-02-18 01:40:00,47.5,33.4,29.62,NNW,328,5.0,5.0,58,0.00,,,0.00,Wunderground v.1.15,2013-02-18 07:40:00,
2013-02-18 01:50:00,47.4,33.4,29.61,NW,319,5.0,5.0,58,0.00,,,0.00,Wunderground v.1.15,2013-02-18 07:50:00,
2013-02-18 01:55:00,47.1,33.1,29.61,NNW,328,5.0,5.0,58,0.00,,,0.00,Wunderground v.1.15,2013-02-18 07:55:00,
2013-02-18 02:00:00,47.0,33.0,29.61,NNW,338,5.0,5.0,58,0.00,,,0.00,Wunderground v.1.15,2013-02-18 08:00:00,
2013-02-18 02:10:00,46.9,33.3,29.60,NNW,327,5.0,6.0,59,0.00,,,0.00,Wunderground v.1.15,2013-02-18 08:10:00,
2013-02-18 02:15:00,46.9,33.3,29.60,NW,320,5.0,6.0,59,0.00,,,0.00,Wunderground v.1.15,2013-02-18 08:15:00,
2013-02-18 02:20:00,46.7,33.1,29.59,NW,308,5.0,5.0,59,0.00,,,0.00,Wunderground v.1.15,2013-02-18 08:20:00,
2013-02-18 02:30:00,46.5,33.4,29.59,NW,315,5.0,5.0,60,0.00,,,0.00,Wunderground v.1.15,2013-02-18 08:30:00,
2013-02-18 02:35:00,46.4,33.3,29.58,NNW,336,6.0,7.0,60,0.00,,,0.00,Wunderground v.1.15,2013-02-18 08:35:00,
2013-02-18 02:40:00,46.3,33.2,29.58,NW,314,6.0,6.0,60,0.00,,,0.00,Wunderground v.1.15,2013-02-18 08:40:00,
2013-02-18 02:45:00,46.2,33.5,29.58,NW,324,5.0,6.0,61,0.00,,,0.00,Wunderground v.1.15,2013-02-18 08:45:00,
2013-02-18 02:55:00,46.1,33.4,29.58,NW,324,6.0,6.0,61,0.00,,,0.00,Wunderground v.1.15,2013-02-18 08:55:00,
2013-02-18 03:00:00,46.0,33.3,29.57,NW,307,7.0,7.0,61,0.00,,,0.00,Wunderground v.1.15,2013-02-18 09:00:00,
2013-02-18 03:10:00,46.0,33.3,29.56,NNW,328,7.0,7.0,61,0.00,,,0.00,Wunderground v.1.15,2013-02-18 09:10:00,
2013-02-18 03:20:00,46.1,33.4,29.56,NNW,334,7.0,7.0,61,0.00,,,0.00,Wunderground v.1.15,2013-02-18 09:20:00,
2013-02-18 03:25:00,46.1,33.4,29.56,NNW,335,7.0,8.0,61,0.00,,,0.00,Wunderground v.1.15,2013-02-18 09:25:00,
2013-02-18 03:30:00,46.1,33.4,29.55,NW,318,7.0,7.0,61,0.00,,,0.00,Wunderground v.1.15,2013-02-18 09:30:00,
2013-02-18 03:40:00,46.2,33.5,29.55,NW,309,8.0,8.0,61,0.00,,,0.00,Wunderground v.1.15,2013-02-18 09:40:00,
2013-02-18 03:50:00,46.3,33.6,29.54,NW,323,8.0,8.0,61,0.00,,,0.00,Wunderground v.1.15,2013-02-18 09:50:00,
2013-02-18 03:55:00,46.3,33.6,29.54,NW,315,8.0,9.0,61,0.00,,,0.00,Wunderground v.1.15,2013-02-18 09:55:00,
2013-02-18 04:00:00,46.4,33.7,29.54,NW,309,7.0,9.0,61,0.00,,,0.00,Wunderground v.1.15,2013-02-18 10:00:00,
2013-02-18 04:10:00,46.8,34.0,29.53,NNW,334,7.0,10.0,61,0.00,,,0.00,Wunderground v.1.15,2013-02-18 10:10:00,
2013-02-18 04:15:00,47.0,34.2,29.53,North,5,8.0,10.0,61,0.00,,,0.00,Wunderground v.1.15,2013-02-18 10:15:00,
2013-02-18 04:20:00,47.2,34.0,29.53,NNW,335,8.0,10.0,60,0.00,,,0.00,Wunderground v.1.15,2013-02-18 10:20:00,
2013-02-18 04:29:00,47.5,34.3,29.53,NW,325,8.0,8.0,60,0.00,,,0.00,Wunderground v.1.15,2013-02-18 10:29:00,
2013-02-18 04:35:00,47.6,34.4,29.53,NW,304,8.0,9.0,60,0.00,,,0.00,Wunderground v.1.15,2013-02-18 10:35:00,
2013-02-18 04:40:00,47.9,34.7,29.52,NNW,329,8.0,8.0,60,0.00,,,0.00,Wunderground v.1.15,2013-02-18 10:40:00,
2013-02-18 04:45:00,47.9,34.7,29.52,NNW,338,8.0,8.0,60,0.00,,,0.00,Wunderground v.1.15,2013-02-18 10:45:00,
2013-02-18 04:50:00,48.0,34.8,29.52,NNW,340,7.0,7.0,60,0.00,,,0.00,Wunderground v.1.15,2013-02-18 10:50:00,
2013-02-18 05:00:00,48.3,35.0,29.52,NW,316,7.0,7.0,60,0.00,,,0.00,Wunderground v.1.15,2013-02-18 11:00:00,
2013-02-18 05:10:00,48.4,35.6,29.52,NNW,336,8.0,9.0,61,0.00,,,0.00,Wunderground v.1.15,2013-02-18 11:10:00,
2013-02-18 05:15:00,48.5,35.7,29.52,ENE,65,8.0,9.0,61,0.00,,,0.00,Wunderground v.1.15,2013-02-18 11:15:00,
2013-02-18 05:20:00,48.5,35.7,29.52,East,79,7.0,9.0,61,0.00,,,0.00,Wunderground v.1.15,2013-02-18 11:20:00,
2013-02-18 05:25:00,48.6,35.7,29.52,NNW,348,7.0,9.0,61,0.00,,,0.00,Wunderground v.1.15,2013-02-18 11:25:00,
2013-02-18 05:30:00,48.7,36.3,29.52,NNW,338,8.0,8.0,62,0.00,,,0.00,Wunderground v.1.15,2013-02-18 11:30:00,
2013-02-18 05:40:00,48.8,36.4,29.52,North,6,7.0,7.0,62,0.00,,,0.00,Wunderground v.1.15,2013-02-18 11:40:00,
2013-02-18 05:45:00,48.9,36.9,29.52,NNW,335,7.0,7.0,63,0.00,,,0.00,Wunderground v.1.15,2013-02-18 11:45:00,
2013-02-18 05:50:00,48.9,36.9,29.52,NNW,346,7.0,7.0,63,0.00,,,0.00,Wunderground v.1.15,2013-02-18 11:50:00,
2013-02-18 05:55:00,49.0,36.9,29.52,NW,324,6.0,9.0,63,0.00,,,0.00,Wunderground v.1.15,2013-02-18 11:55:00,
2013-02-18 06:00:00,49.0,37.3,29.51,NNE,16,6.0,8.0,64,0.00,,,0.00,Wunderground v.1.15,2013-02-18 12:00:00,
2013-02-18 06:10:00,49.2,37.9,29.52,ENE,68,6.0,6.0,65,0.00,,,0.00,Wunderground v.1.15,2013-02-18 12:10:00,
2013-02-18 06:20:00,49.5,38.6,29.51,ENE,71,5.0,8.0,66,0.00,,,0.00,Wunderground v.1.15,2013-02-18 12:20:00,
2013-02-18 06:25:00,49.8,39.3,29.51,WNW,297,5.0,8.0,67,0.00,,,0.00,Wunderground v.1.15,2013-02-18 12:25:00,
2013-02-18 06:30:00,50.1,39.6,29.52,NNW,335,5.0,6.0,67,0.00,,,0.00,Wunderground v.1.15,2013-02-18 12:30:00,
2013-02-18 06:35:00,50.4,39.9,29.52,NNW,345,5.0,7.0,67,0.00,,,0.00,Wunderground v.1.15,2013-02-18 12:35:00,
2013-02-18 06:40:00,50.6,40.0,29.52,WNW,294,5.0,5.0,67,0.00,,,0.00,Wunderground v.1.15,2013-02-18 12:40:00,
2013-02-18 06:49:00,51.0,40.4,29.52,NNW,330,4.0,4.0,67,0.00,,,0.00,Wunderground v.1.15,2013-02-18 12:49:00,
2013-02-18 06:54:00,51.2,40.6,29.52,WNW,302,4.0,4.0,67,0.00,,,0.00,Wunderground v.1.15,2013-02-18 12:54:00,
2013-02-18 07:00:00,51.3,40.7,29.51,ESE,107,4.0,4.0,67,0.00,,,0.00,Wunderground v.1.15,2013-02-18 13:00:00,
2013-02-18 07:10:00,51.5,41.3,29.51,West,271,5.0,5.0,68,0.00,,,0.00,Wunderground v.1.15,2013-02-18 13:10:00,
2013-02-18 07:20:00,51.6,41.4,29.52,NNE,26,5.0,6.0,68,0.00,,,0.00,Wunderground v.1.15,2013-02-18 13:20:00,
2013-02-18 07:25:00,51.6,41.8,29.52,NNE,13,4.0,6.0,69,0.00,,,0.00,Wunderground v.1.15,2013-02-18 13:25:00,
2013-02-18 07:35:00,51.8,41.9,29.52,SW,229,4.0,4.0,69,0.00,,,0.00,Wunderground v.1.15,2013-02-18 13:35:00,
2013-02-18 07:40:00,51.8,42.3,29.52,NW,315,4.0,5.0,70,0.00,,,0.00,Wunderground v.1.15,2013-02-18 13:40:00,
2013-02-18 07:45:00,51.9,42.4,29.52,West,271,4.0,5.0,70,0.00,,,0.00,Wunderground v.1.15,2013-02-18 13:45:00,
2013-02-18 07:50:00,52.0,42.9,29.51,WSW,251,4.0,8.0,71,0.00,,,0.00,Wunderground v.1.15,2013-02-18 13:50:00,
2013-02-18 08:00:00,52.1,43.0,29.51,ENE,75,4.0,6.0,71,0.00,,,0.00,Wunderground v.1.15,2013-02-18 14:00:00,
2013-02-18 08:10:00,52.3,43.5,29.52,NNW,329,4.0,5.0,72,0.00,,,0.00,Wunderground v.1.15,2013-02-18 14:10:00,
2013-02-18 08:15:00,52.4,43.6,29.52,NW,324,4.0,5.0,72,0.00,,,0.00,Wunderground v.1.15,2013-02-18 14:15:00,
2013-02-18 08:25:00,52.6,44.2,29.52,North,8,4.0,13.0,73,0.00,,,0.00,Wunderground v.1.15,2013-02-18 14:25:00,
2013-02-18 08:34:00,52.7,44.3,29.52,ENE,77,4.0,4.0,73,0.00,,,0.00,Wunderground v.1.15,2013-02-18 14:34:00,
2013-02-18 08:39:00,52.9,44.8,29.52,WNW,301,4.0,4.0,74,0.00,,,0.00,Wunderground v.1.15,2013-02-18 14:39:00,
2013-02-18 08:45:00,53.1,45.0,29.52,NW,306,4.0,4.0,74,0.00,,,0.00,Wunderground v.1.15,2013-02-18 14:45:00,
2013-02-18 08:50:00,53.2,45.1,29.52,NW,304,3.0,3.0,74,0.00,,,0.00,Wunderground v.1.15,2013-02-18 14:50:00,
2013-02-18 08:55:00,53.3,45.2,29.52,West,279,3.0,3.0,74,0.00,,,0.00,Wunderground v.1.15,2013-02-18 14:55:00,
2013-02-18 09:00:00,53.4,45.3,29.52,NNW,345,4.0,10.0,74,0.00,,,0.00,Wunderground v.1.15,2013-02-18 15:00:00,
2013-02-18 09:10:00,53.5,45.1,29.51,NNW,342,4.0,4.0,73,0.00,,,0.00,Wunderground v.1.15,2013-02-18 15:10:00,
2013-02-18 09:15:00,53.4,45.0,29.51,NNW,332,4.0,9.0,73,0.00,,,0.00,Wunderground v.1.15,2013-02-18 15:15:00,
2013-02-18 09:20:00,53.4,45.0,29.51,NW,325,4.0,9.0,73,0.00,,,0.00,Wunderground v.1.15,2013-02-18 15:20:00,
2013-02-18 09:25:00,53.3,45.2,29.51,NE,34,5.0,9.0,74,0.00,,,0.00,Wunderground v.1.15,2013-02-18 15:25:00,
2013-02-18 09:30:00,53.2,45.1,29.51,SSE,160,5.0,5.0,74,0.00,,,0.00,Wunderground v.1.15,2013-02-18 15:30:00,
2013-02-18 09:40:00,53.2,45.1,29.50,NNE,20,5.0,5.0,74,0.00,,,0.00,Wunderground v.1.15,2013-02-18 15:40:00,
2013-02-18 09:50:00,53.2,45.5,29.50,NW,321,4.0,4.0,75,0.00,,,0.00,Wunderground v.1.15,2013-02-18 15:50:00,
2013-02-18 09:55:00,53.2,45.5,29.50,NNW,340,4.0,6.0,75,0.00,,,0.00,Wunderground v.1.15,2013-02-18 15:55:00,
2013-02-18 10:00:00,53.1,45.7,29.50,NNW,332,4.0,5.0,76,0.00,,,0.00,Wunderground v.1.15,2013-02-18 16:00:00,
2013-02-18 10:09:00,52.9,45.9,29.50,ENE,60,4.0,4.0,77,0.00,,,0.00,Wunderground v.1.15,2013-02-18 16:09:00,
2013-02-18 10:15:00,52.9,45.9,29.49,NW,320,4.0,4.0,77,0.00,,,0.00,Wunderground v.1.15,2013-02-18 16:15:00,
2013-02-18 10:20:00,52.8,46.1,29.49,NNE,12,5.0,5.0,78,0.00,,,0.00,Wunderground v.1.15,2013-02-18 16:20:00,
2013-02-18 10:25:00,52.8,46.1,29.49,NW,314,5.0,5.0,78,0.00,,,0.00,Wunderground v.1.15,2013-02-18 16:25:00,
2013-02-18 10:30:00,52.8,46.1,29.49,NW,318,5.0,5.0,78,0.00,,,0.00,Wunderground v.1.15,2013-02-18 16:30:00,
2013-02-18 10:40:00,53.0,46.3,29.49,NNW,333,5.0,6.0,78,0.00,,,0.00,Wunderground v.1.15,2013-02-18 16:40:00,
2013-02-18 10:50:00,53.0,47.0,29.48,WNW,293,5.0,5.0,80,0.00,,,0.00,Wunderground v.1.15,2013-02-18 16:50:00,
2013-02-18 11:00:00,52.6,47.3,29.49,NNE,33,4.0,4.0,82,0.00,,,0.00,Wunderground v.1.15,2013-02-18 17:00:00,
2013-02-18 11:10:00,51.9,47.5,29.49,South,169,2.0,3.0,85,0.14,,,0.01,Wunderground v.1.15,2013-02-18 17:10:00,
2013-02-18 11:15:00,51.6,47.5,29.49,NE,48,3.0,3.0,86,0.11,,,0.02,Wunderground v.1.15,2013-02-18 17:15:00,
2013-02-18 11:20:00,51.4,47.4,29.49,North,11,2.0,2.0,86,0.09,,,0.03,Wunderground v.1.15,2013-02-18 17:20:00,
2013-02-18 11:25:00,51.2,47.5,29.49,NNE,25,1.0,2.0,87,0.11,,,0.04,Wunderground v.1.15,2013-02-18 17:25:00,
2013-02-18 11:30:00,51.1,47.7,29.49,NNW,346,1.0,1.0,88,0.07,,,0.04,Wunderground v.1.15,2013-02-18 17:30:00,
2013-02-18 11:40:00,51.1,47.7,29.48,NE,43,1.0,1.0,88,0.00,,,0.04,Wunderground v.1.15,2013-02-18 17:40:00,
2013-02-18 11:45:00,51.1,47.7,29.48,NE,46,1.0,1.0,88,0.00,,,0.04,Wunderground v.1.15,2013-02-18 17:45:00,
2013-02-18 11:50:00,51.1,48.0,29.48,NE,44,0.0,1.0,89,0.00,,,0.04,Wunderground v.1.15,2013-02-18 17:50:00,
2013-02-18 11:55:00,51.1,48.0,29.48,NE,44,0.0,1.0,89,0.00,,,0.04,Wunderground v.1.15,2013-02-18 17:55:00,
2013-02-18 12:05:00,51.1,48.3,29.48,ENE,60,1.0,1.0,90,0.00,,,0.04,Wunderground v.1.15,2013-02-18 18:05:00,
2013-02-18 12:10:00,51.2,48.4,29.48,East,79,1.0,1.0,90,0.00,,,0.04,Wunderground v.1.15,2013-02-18 18:10:00,
2013-02-18 12:20:00,51.2,48.4,29.47,East,81,1.0,1.0,90,0.00,,,0.04,Wunderground v.1.15,2013-02-18 18:20:00,
2013-02-18 12:25:00,51.2,48.7,29.47,East,81,1.0,1.0,91,0.00,,,0.05,Wunderground v.1.15,2013-02-18 18:25:00,
2013-02-18 12:30:00,51.1,48.6,29.47,ENE,77,1.0,1.0,91,0.00,,,0.05,Wunderground v.1.15,2013-02-18 18:30:00,
2013-02-18 12:35:00,51.1,48.6,29.46,ENE,70,1.0,1.0,91,0.00,,,0.05,Wunderground v.1.15,2013-02-18 18:35:00,
2013-02-18 12:45:00,51.2,49.0,29.47,ESE,104,3.0,4.0,92,0.34,,,0.07,Wunderground v.1.15,2013-02-18 18:45:00,
2013-02-18 12:50:00,50.6,47.5,29.47,ESE,121,3.0,5.0,89,0.22,,,0.09,Wunderground v.1.15,2013-02-18 18:50:00,
2013-02-18 13:00:00,45.2,41.3,29.49,SE,132,4.0,4.0,86,0.11,,,0.11,Wunderground v.1.15,2013-02-18 19:00:00,
2013-02-18 13:10:00,42.2,39.2,29.49,SE,132,4.0,4.0,89,0.10,,,0.13,Wunderground v.1.15,2013-02-18 19:10:00,
2013-02-18 13:15:00,41.6,39.2,29.50,SSE,148,3.0,4.0,91,0.07,,,0.14,Wunderground v.1.15,2013-02-18 19:15:00,
2013-02-18 13:25:00,40.9,38.8,29.50,SSE,160,3.0,4.0,92,0.05,,,0.14,Wunderground v.1.15,2013-02-18 19:25:00,
2013-02-18 13:30:00,40.5,38.4,29.51,SE,139,3.0,3.0,92,0.00,,,0.14,Wunderground v.1.15,2013-02-18 19:30:00,
2013-02-18 13:40:00,40.0,37.9,29.51,SE,129,2.0,2.0,92,0.00,,,0.14,Wunderground v.1.15,2013-02-18 19:40:00,
2013-02-18 13:45:00,39.9,37.8,29.51,SSW,208,3.0,4.0,92,0.00,,,0.14,Wunderground v.1.15,2013-02-18 19:45:00,
2013-02-18 13:50:00,39.8,37.9,29.51,SSE,156,3.0,3.0,93,0.00,,,0.14,Wunderground v.1.15,2013-02-18 19:50:00,
2013-02-18 14:00:00,39.9,38.0,29.52,SE,142,3.0,3.0,93,0.00,,,0.14,Wunderground v.1.15,2013-02-18 20:00:00,
2013-02-18 14:05:00,39.9,38.0,29.53,South,177,3.0,3.0,93,0.00,,,0.14,Wunderground v.1.15,2013-02-18 20:05:00,
2013-02-18 14:15:00,39.8,37.7,29.53,SSE,158,3.0,3.0,92,0.00,,,0.14,Wunderground v.1.15,2013-02-18 20:15:00,
2013-02-18 14:20:00,39.7,37.3,29.53,ESE,113,3.0,5.0,91,0.00,,,0.14,Wunderground v.1.15,2013-02-18 20:20:00,
2013-02-18 14:25:00,39.5,37.1,29.53,SE,146,3.0,5.0,91,0.00,,,0.14,Wunderground v.1.15,2013-02-18 20:25:00,
2013-02-18 14:35:00,39.6,37.2,29.54,South,171,3.0,4.0,91,0.00,,,0.14,Wunderground v.1.15,2013-02-18 20:35:00,
2013-02-18 14:45:00,40.0,37.3,29.55,SE,143,3.0,3.0,90,0.00,,,0.14,Wunderground v.1.15,2013-02-18 20:45:00,
2013-02-18 14:50:00,40.3,37.9,29.56,SSE,165,3.0,3.0,91,0.00,,,0.14,Wunderground v.1.15,2013-02-18 20:50:00,
2013-02-18 15:00:00,41.1,38.4,29.57,SE,138,3.0,3.0,90,0.00,,,0.14,Wunderground v.1.15,2013-02-18 21:00:00,
2013-02-18 15:10:00,41.6,38.0,29.58,SE,127,3.0,3.0,87,0.00,,,0.14,Wunderground v.1.15,2013-02-18 21:10:00,
2013-02-18 15:20:00,41.2,37.3,29.60,SSE,155,3.0,3.0,86,0.00,,,0.14,Wunderground v.1.15,2013-02-18 21:20:00,
2013-02-18 15:25:00,41.1,36.9,29.59,SE,138,3.0,3.0,85,0.00,,,0.14,Wunderground v.1.15,2013-02-18 21:25:00,
2013-02-18 15:30:00,41.1,37.2,29.60,ESE,109,3.0,3.0,86,0.00,,,0.14,Wunderground v.1.15,2013-02-18 21:30:00,
2013-02-18 15:35:00,41.4,37.5,29.60,SSW,192,2.0,3.0,86,0.00,,,0.14,Wunderground v.1.15,2013-02-18 21:35:00,
2013-02-18 15:45:00,41.5,36.1,29.61,SSE,158,4.0,4.0,81,0.00,,,0.14,Wunderground v.1.15,2013-02-18 21:45:00,
2013-02-18 15:50:00,41.3,35.9,29.62,SSE,148,4.0,4.0,81,0.00,,,0.14,Wunderground v.1.15,2013-02-18 21:50:00,
2013-02-18 16:00:00,40.1,34.7,29.64,SSW,203,4.0,8.0,81,0.00,,,0.14,Wunderground v.1.15,2013-02-18 22:00:00,
2013-02-18 16:10:00,39.4,34.4,29.65,SE,129,4.0,4.0,82,0.00,,,0.14,Wunderground v.1.15,2013-02-18 22:10:00,
2013-02-18 16:20:00,38.6,33.3,29.66,ESE,116,3.0,5.0,81,0.00,,,0.14,Wunderground v.1.15,2013-02-18 22:20:00,
2013-02-18 16:25:00,38.0,32.4,29.67,SE,142,3.0,5.0,80,0.00,,,0.14,Wunderground v.1.15,2013-02-18 22:25:00,
2013-02-18 16:30:00,37.7,32.1,29.68,ESE,115,4.0,4.0,80,0.00,,,0.14,Wunderground v.1.15,2013-02-18 22:30:00,
2013-02-18 16:35:00,37.4,31.8,29.68,SSE,162,4.0,4.0,80,0.00,,,0.14,Wunderground v.1.15,2013-02-18 22:35:00,
2013-02-18 16:40:00,37.1,31.5,29.69,West,280,3.0,5.0,80,0.00,,,0.14,Wunderground v.1.15,2013-02-18 22:40:00,
2013-02-18 16:50:00,36.6,31.3,29.70,ESE,115,3.0,5.0,81,0.00,,,0.14,Wunderground v.1.15,2013-02-18 22:50:00,
2013-02-18 16:55:00,36.5,31.2,29.71,ESE,117,3.0,5.0,81,0.00,,,0.14,Wunderground v.1.15,2013-02-18 22:55:00,
2013-02-18 17:00:00,36.3,31.0,29.72,ESE,118,2.0,2.0,81,0.00,,,0.14,Wunderground v.1.15,2013-02-18 23:00:00,
2013-02-18 17:05:00,36.1,30.8,29.72,ESE,107,2.0,3.0,81,0.00,,,0.14,Wunderground v.1.15,2013-02-18 23:05:00,
2013-02-18 17:15:00,35.7,30.1,29.73,SE,134,3.0,3.0,80,0.00,,,0.14,Wunderground v.1.15,2013-02-18 23:15:00,
2013-02-18 17:20:00,35.4,29.5,29.74,SSE,149,4.0,4.0,79,0.00,,,0.14,Wunderground v.1.15,2013-02-18 23:20:00,
2013-02-18 17:25:00,35.1,29.2,29.74,SSW,196,3.0,4.0,79,0.00,,,0.14,Wunderground v.1.15,2013-02-18 23:25:00,
2013-02-18 17:35:00,34.6,28.8,29.75,SE,127,3.0,3.0,79,0.00,,,0.14,Wunderground v.1.15,2013-02-18 23:35:00,
2013-02-18 17:40:00,34.6,29.1,29.76,ESE,112,2.0,4.0,80,0.00,,,0.14,Wunderground v.1.15,2013-02-18 23:40:00,
2013-02-18 17:45:00,34.7,29.5,29.76,East,85,2.0,4.0,81,0.00,,,0.14,Wunderground v.1.15,2013-02-18 23:45:00,
2013-02-18 17:55:00,34.3,27.8,29.76,SE,132,3.0,4.0,77,0.00,,,0.14,Wunderground v.1.15,2013-02-18 23:55:00,
2013-02-18 18:00:00,33.9,27.1,29.77,SE,143,3.0,3.0,76,0.00,,,0.14,Wunderground v.1.15,2013-02-19 00:00:00,
2013-02-18 18:05:00,33.5,27.1,29.78,ESE,117,3.0,3.0,77,0.00,,,0.14,Wunderground v.1.15,2013-02-19 00:05:00,
2013-02-18 18:15:00,33.0,26.9,29.79,SSE,163,2.0,3.0,78,0.00,,,0.14,Wunderground v.1.15,2013-02-19 00:15:00,
2013-02-18 18:20:00,32.8,26.7,29.80,SE,124,2.0,2.0,78,0.00,,,0.14,Wunderground v.1.15,2013-02-19 00:20:00,
2013-02-18 18:25:00,32.8,26.7,29.80,SE,129,2.0,2.0,78,0.00,,,0.14,Wunderground v.1.15,2013-02-19 00:25:00,
2013-02-18 18:35:00,32.8,27.0,29.81,WSW,246,1.0,2.0,79,0.00,,,0.14,Wunderground v.1.15,2013-02-19 00:35:00,
2013-02-18 18:45:00,32.8,26.7,29.82,South,187,2.0,2.0,78,0.00,,,0.14,Wunderground v.1.15,2013-02-19 00:45:00,
2013-02-18 18:50:00,32.8,26.7,29.83,South,190,2.0,2.0,78,0.00,,,0.14,Wunderground v.1.15,2013-02-19 00:50:00,
2013-02-18 19:00:00,32.7,26.3,29.84,ESE,110,2.0,2.0,77,0.00,,,0.14,Wunderground v.1.15,2013-02-19 01:00:00,
2013-02-18 19:10:00,32.3,25.6,29.84,SSW,212,1.0,1.0,76,0.00,,,0.14,Wunderground v.1.15,2013-02-19 01:10:00,
2013-02-18 19:20:00,32.0,25.6,29.85,SSE,154,1.0,1.0,77,0.00,,,0.14,Wunderground v.1.15,2013-02-19 01:20:00,
2013-02-18 19:25:00,31.6,25.5,29.86,SE,136,1.0,1.0,78,0.00,,,0.14,Wunderground v.1.15,2013-02-19 01:25:00,
2013-02-18 19:30:00,31.4,25.3,29.86,WSW,249,1.0,1.0,78,0.00,,,0.14,Wunderground v.1.15,2013-02-19 01:30:00,
2013-02-18 19:35:00,31.2,25.4,29.86,WSW,249,1.0,1.0,79,0.00,,,0.14,Wunderground v.1.15,2013-02-19 01:35:00,
2013-02-18 19:45:00,30.6,24.9,29.87,North,1,0.0,0.0,79,0.00,,,0.14,Wunderground v.1.15,2013-02-19 01:45:00,
2013-02-18 19:50:00,30.4,24.7,29.87,East,98,0.0,2.0,79,0.00,,,0.14,Wunderground v.1.15,2013-02-19 01:50:00,
2013-02-18 19:55:00,30.4,24.1,29.88,SSW,208,1.0,2.0,77,0.00,,,0.14,Wunderground v.1.15,2013-02-19 01:55:00,
2013-02-18 20:05:00,30.4,23.4,29.88,South,181,2.0,2.0,75,0.00,,,0.14,Wunderground v.1.15,2013-02-19 02:05:00,
2013-02-18 20:10:00,30.2,23.2,29.88,SE,139,2.0,2.0,75,0.00,,,0.14,Wunderground v.1.15,2013-02-19 02:10:00,
2013-02-18 20:20:00,29.8,22.2,29.89,SE,141,2.0,2.0,73,0.00,,,0.14,Wunderground v.1.15,2013-02-19 02:20:00,
2013-02-18 20:30:00,29.6,22.0,29.90,SE,134,3.0,3.0,73,0.00,,,0.14,Wunderground v.1.15,2013-02-19 02:30:00,
2013-02-18 20:35:00,29.6,21.3,29.90,ESE,109,3.0,4.0,71,0.00,,,0.14,Wunderground v.1.15,2013-02-19 02:35:00,
2013-02-18 20:40:00,29.6,21.3,29.91,ESE,115,3.0,5.0,71,0.00,,,0.14,Wunderground v.1.15,2013-02-19 02:40:00,
2013-02-18 20:50:00,29.3,21.4,29.91,ESE,117,3.0,3.0,72,0.00,,,0.14,Wunderground v.1.15,2013-02-19 02:50:00,
2013-02-18 20:55:00,29.1,21.2,29.91,SE,129,3.0,3.0,72,0.00,,,0.14,Wunderground v.1.15,2013-02-19 02:55:00,
2013-02-18 21:00:00,29.0,20.8,29.91,ESE,112,2.0,3.0,71,0.00,,,0.14,Wunderground v.1.15,2013-02-19 03:00:00,
2013-02-18 21:10:00,28.9,20.7,29.92,SE,141,3.0,3.0,71,0.00,,,0.14,Wunderground v.1.15,2013-02-19 03:10:00,
2013-02-18 21:15:00,28.9,20.3,29.92,ESE,114,3.0,3.0,70,0.00,,,0.14,Wunderground v.1.15,2013-02-19 03:15:00,
2013-02-18 21:20:00,28.8,20.6,29.92,ESE,107,3.0,3.0,71,0.00,,,0.14,Wunderground v.1.15,2013-02-19 03:20:00,
2013-02-18 21:30:00,28.6,20.1,29.93,ESE,108,2.0,2.0,70,0.00,,,0.14,Wunderground v.1.15,2013-02-19 03:30:00,
2013-02-18 21:35:00,28.6,20.4,29.94,WNW,293,2.0,2.0,71,0.00,,,0.14,Wunderground v.1.15,2013-02-19 03:35:00,
2013-02-18 21:40:00,28.5,20.3,29.93,SE,146,2.0,2.0,71,0.00,,,0.14,Wunderground v.1.15,2013-02-19 03:40:00,
2013-02-18 21:45:00,28.5,20.3,29.94,ESE,118,2.0,2.0,71,0.00,,,0.14,Wunderground v.1.15,2013-02-19 03:45:00,
2013-02-18 21:54:00,28.3,20.1,29.94,East,94,2.0,2.0,71,0.00,,,0.14,Wunderground v.1.15,2013-02-19 03:54:00,
2013-02-18 22:00:00,28.2,20.0,29.94,ESE,112,2.0,4.0,71,0.00,,,0.14,Wunderground v.1.15,2013-02-19 04:00:00,
2013-02-18 22:10:00,28.1,20.2,29.94,SE,137,2.0,2.0,72,0.00,,,0.14,Wunderground v.1.15,2013-02-19 04:10:00,
2013-02-18 22:15:00,28.1,20.2,29.95,ESE,106,2.0,2.0,72,0.00,,,0.14,Wunderground v.1.15,2013-02-19 04:15:00,
2013-02-18 22:25:00,28.0,19.8,29.95,SE,132,2.0,2.0,71,0.00,,,0.14,Wunderground v.1.15,2013-02-19 04:25:00,
2013-02-18 22:35:00,28.1,19.9,29.96,East,84,3.0,4.0,71,0.00,,,0.14,Wunderground v.1.15,2013-02-19 04:35:00,
2013-02-18 22:40:00,28.1,19.9,29.96,ESE,117,3.0,3.0,71,0.00,,,0.14,Wunderground v.1.15,2013-02-19 04:40:00,
2013-02-18 22:49:00,28.0,19.8,29.97,ESE,112,2.0,2.0,71,0.00,,,0.14,Wunderground v.1.15,2013-02-19 04:49:00,
2013-02-18 22:55:00,27.9,19.4,29.96,East,94,2.0,2.0,70,0.00,,,0.14,Wunderground v.1.15,2013-02-19 04:55:00,
2013-02-18 23:00:00,28.1,19.2,29.97,SE,134,3.0,3.0,69,0.00,,,0.14,Wunderground v.1.15,2013-02-19 05:00:00,
2013-02-18 23:05:00,28.1,18.9,29.97,ESE,108,3.0,3.0,68,0.00,,,0.14,Wunderground v.1.15,2013-02-19 05:05:00,
2013-02-18 23:10:00,28.2,18.6,29.97,ESE,108,4.0,4.0,67,0.00,,,0.14,Wunderground v.1.15,2013-02-19 05:10:00,
2013-02-18 23:14:00,28.1,18.9,29.97,SSE,148,3.0,4.0,68,0.00,,,0.14,Wunderground v.1.15,2013-02-19 05:14:00,
2013-02-18 23:20:00,28.0,18.8,29.98,ESE,117,2.0,2.0,68,0.00,,,0.14,Wunderground v.1.15,2013-02-19 05:20:00,
2013-02-18 23:25:00,28.0,18.5,29.98,ESE,113,3.0,3.0,67,0.00,,,0.14,Wunderground v.1.15,2013-02-19 05:25:00,
2013-02-18 23:35:00,27.8,18.9,29.98,ESE,113,2.0,4.0,69,0.00,,,0.14,Wunderground v.1.15,2013-02-19 05:35:00,
2013-02-18 23:40:00,27.7,18.8,29.99,SE,145,3.0,3.0,69,0.00,,,0.14,Wunderground v.1.15,2013-02-19 05:40:00,
2013-02-18 23:45:00,27.7,18.8,29.99,SE,132,3.0,4.0,69,0.00,,,0.14,Wunderground v.1.15,2013-02-19 05:45:00,
2013-02-18 23:50:00,27.7,18.5,29.99,SE,145,3.0,3.0,68,0.00,,,0.14,Wunderground v.1.15,2013-02-19 05:50:00,